Year,Month,Day,Hour,Minute,Value (Times are PST for windgust in km/hr)
2016,10,13,00,03,1.60
2016,10,13,00,04,4.80
2016,10,13,00,05,1.60
2016,10,13,00,14,4.80
2016,10,13,00,15,6.40
2016,10,13,00,16,4.80
2016,10,13,00,17,3.20
2016,10,13,00,18,1.60
2016,10,13,00,53,1.60
2016,10,13,01,07,6.40
2016,10,13,01,08,6.40
2016,10,13,01,09,6.40
2016,10,13,01,10,4.80
2016,10,13,01,11,3.20
2016,10,13,01,12,1.60
2016,10,13,01,22,1.60
2016,10,13,01,39,1.60
2016,10,13,01,40,4.80
2016,10,13,01,41,4.80
2016,10,13,01,42,3.20
2016,10,13,02,05,1.60
2016,10,13,02,06,4.80
2016,10,13,02,07,6.40
2016,10,13,02,08,3.20
2016,10,13,02,16,1.60
2016,10,13,02,17,6.40
2016,10,13,02,18,3.20
2016,10,13,02,22,4.80
2016,10,13,02,23,6.40
2016,10,13,02,24,4.80
2016,10,13,02,25,3.20
2016,10,13,02,47,1.60
2016,10,13,02,48,6.40
2016,10,13,02,49,6.40
2016,10,13,02,50,3.20
2016,10,13,02,57,4.80
2016,10,13,02,58,4.80
2016,10,13,02,59,3.20
2016,10,13,03,20,1.60
2016,10,13,03,56,1.60
2016,10,13,03,57,4.80
2016,10,13,03,58,4.80
2016,10,13,03,59,1.60
2016,10,13,04,11,6.40
2016,10,13,04,12,9.60
2016,10,13,04,13,8.10
2016,10,13,04,14,6.40
2016,10,13,04,15,6.40
2016,10,13,04,16,1.60
2016,10,13,04,18,1.60
2016,10,13,04,19,6.40
2016,10,13,04,20,11.30
2016,10,13,04,21,9.60
2016,10,13,04,22,6.40
2016,10,13,04,23,8.10
2016,10,13,04,24,4.80
2016,10,13,04,25,4.80
2016,10,13,04,26,8.10
2016,10,13,04,27,6.40
2016,10,13,04,28,6.40
2016,10,13,04,29,9.60
2016,10,13,04,30,4.80
2016,10,13,04,31,4.80
2016,10,13,04,32,4.80
2016,10,13,04,33,4.80
2016,10,13,04,34,4.80
2016,10,13,04,35,4.80
2016,10,13,04,42,6.40
2016,10,13,04,43,6.40
2016,10,13,04,44,4.80
2016,10,13,04,45,4.80
2016,10,13,06,11,4.80
2016,10,13,06,12,4.80
2016,10,13,06,13,3.20
2016,10,13,06,14,8.10
2016,10,13,06,15,4.80
2016,10,13,06,16,3.20
2016,10,13,06,17,6.40
2016,10,13,06,18,4.80
2016,10,13,06,19,4.80
2016,10,13,06,20,3.20
2016,10,13,06,21,3.20
2016,10,13,06,24,1.60
2016,10,13,06,36,1.60
2016,10,13,07,01,1.60
2016,10,13,07,05,3.20
2016,10,13,07,06,4.80
2016,10,13,07,07,1.60
2016,10,13,07,51,1.60
2016,10,13,08,56,3.20
2016,10,13,08,57,3.20
2016,10,13,08,58,1.60
2016,10,13,09,17,3.20
2016,10,13,09,18,3.20
2016,10,13,09,19,1.60
2016,10,13,09,24,1.60
2016,10,13,09,25,3.20
2016,10,13,09,26,1.60
2016,10,13,10,30,1.60
2016,10,13,10,31,4.80
2016,10,13,10,32,4.80
2016,10,13,10,33,3.20
2016,10,13,10,46,1.60
2016,10,13,10,59,3.20
2016,10,13,11,00,3.20
2016,10,13,11,02,1.60
2016,10,13,11,03,3.20
2016,10,13,11,04,3.20
2016,10,13,11,06,1.60
2016,10,13,11,07,4.80
2016,10,13,11,11,4.80
2016,10,13,11,12,4.80
2016,10,13,11,24,1.60
2016,10,13,11,28,4.80
2016,10,13,11,29,6.40
2016,10,13,11,30,6.40
2016,10,13,11,31,6.40
2016,10,13,11,32,8.10
2016,10,13,11,33,6.40
2016,10,13,11,39,8.10
2016,10,13,11,40,6.40
2016,10,13,11,41,6.40
2016,10,13,11,42,8.10
2016,10,13,11,43,4.80
2016,10,13,11,44,6.40
2016,10,13,11,45,3.20
2016,10,13,11,46,8.10
2016,10,13,11,47,6.40
2016,10,13,11,48,4.80
2016,10,13,11,49,1.60
2016,10,13,11,50,6.40
2016,10,13,11,51,6.40
2016,10,13,11,52,8.10
2016,10,13,11,53,9.60
2016,10,13,11,54,9.60
2016,10,13,11,55,6.40
2016,10,13,11,56,1.60
2016,10,13,11,57,11.30
2016,10,13,11,58,8.10
2016,10,13,11,59,4.80
2016,10,13,12,00,3.20
2016,10,13,12,01,1.60
2016,10,13,12,02,8.10
2016,10,13,12,03,8.10
2016,10,13,12,04,3.20
2016,10,13,12,06,6.40
2016,10,13,12,07,8.10
2016,10,13,12,08,6.40
2016,10,13,12,09,6.40
2016,10,13,12,10,4.80
2016,10,13,12,11,4.80
2016,10,13,12,12,6.40
2016,10,13,12,13,4.80
2016,10,13,12,20,1.60
2016,10,13,12,21,8.10
2016,10,13,12,22,8.10
2016,10,13,12,23,9.60
2016,10,13,12,24,4.80
2016,10,13,12,25,3.20
2016,10,13,12,27,8.10
2016,10,13,12,28,8.10
2016,10,13,12,29,6.40
2016,10,13,12,30,8.10
2016,10,13,12,31,6.40
2016,10,13,12,41,1.60
2016,10,13,12,42,9.60
2016,10,13,12,43,6.40
2016,10,13,12,44,6.40
2016,10,13,12,45,11.30
2016,10,13,12,46,8.10
2016,10,13,12,47,9.60
2016,10,13,12,48,1.60
2016,10,13,12,49,9.60
2016,10,13,12,50,9.60
2016,10,13,12,51,9.60
2016,10,13,12,52,9.60
2016,10,13,12,53,6.40
2016,10,13,12,55,12.90
2016,10,13,12,56,6.40
2016,10,13,12,57,11.30
2016,10,13,12,58,16.10
2016,10,13,12,59,8.10
2016,10,13,13,00,8.10
2016,10,13,13,01,8.10
2016,10,13,13,02,9.60
2016,10,13,13,03,4.80
2016,10,13,13,04,1.60
2016,10,13,13,05,1.60
2016,10,13,13,06,8.10
2016,10,13,13,07,6.40
2016,10,13,13,08,6.40
2016,10,13,13,09,6.40
2016,10,13,13,10,6.40
2016,10,13,13,12,8.10
2016,10,13,13,13,9.60
2016,10,13,13,14,6.40
2016,10,13,13,17,6.40
2016,10,13,13,18,4.80
2016,10,13,13,19,8.10
2016,10,13,13,20,4.80
2016,10,13,13,21,12.90
2016,10,13,13,23,1.60
2016,10,13,13,24,6.40
2016,10,13,13,25,1.60
2016,10,13,13,27,1.60
2016,10,13,13,28,9.60
2016,10,13,13,29,6.40
2016,10,13,13,30,3.20
2016,10,13,13,31,1.60
2016,10,13,13,34,3.20
2016,10,13,13,35,1.60
2016,10,13,13,36,17.70
2016,10,13,13,37,16.10
2016,10,13,13,38,12.90
2016,10,13,13,39,17.70
2016,10,13,13,40,11.30
2016,10,13,13,41,12.90
2016,10,13,13,42,11.30
2016,10,13,13,43,6.40
2016,10,13,13,44,17.70
2016,10,13,13,45,12.90
2016,10,13,13,46,6.40
2016,10,13,13,47,8.10
2016,10,13,13,48,11.30
2016,10,13,13,49,16.10
2016,10,13,13,50,9.60
2016,10,13,13,51,11.30
2016,10,13,13,52,9.60
2016,10,13,13,53,8.10
2016,10,13,13,54,6.40
2016,10,13,13,58,4.80
2016,10,13,13,59,9.60
2016,10,13,14,00,8.10
2016,10,13,14,01,12.90
2016,10,13,14,02,12.90
2016,10,13,14,03,12.90
2016,10,13,14,04,14.50
2016,10,13,14,05,11.30
2016,10,13,14,06,11.30
2016,10,13,14,07,19.30
2016,10,13,14,08,20.90
2016,10,13,14,09,20.90
2016,10,13,14,10,16.10
2016,10,13,14,11,16.10
2016,10,13,14,12,6.40
2016,10,13,14,13,17.70
2016,10,13,14,14,20.90
2016,10,13,14,15,20.90
2016,10,13,14,16,16.10
2016,10,13,14,17,11.30
2016,10,13,14,18,19.30
2016,10,13,14,19,12.90
2016,10,13,14,20,12.90
2016,10,13,14,21,11.30
2016,10,13,14,22,6.40
2016,10,13,14,27,12.90
2016,10,13,14,28,3.20
2016,10,13,14,29,4.80
2016,10,13,14,30,11.30
2016,10,13,14,31,4.80
2016,10,13,14,32,6.40
2016,10,13,14,33,4.80
2016,10,13,14,34,12.90
2016,10,13,14,35,6.40
2016,10,13,14,36,16.10
2016,10,13,14,37,20.90
2016,10,13,14,38,17.70
2016,10,13,14,39,9.60
2016,10,13,14,40,8.10
2016,10,13,14,41,12.90
2016,10,13,14,42,12.90
2016,10,13,14,43,12.90
2016,10,13,14,44,8.10
2016,10,13,14,45,6.40
2016,10,13,14,46,6.40
2016,10,13,14,47,9.60
2016,10,13,14,48,8.10
2016,10,13,14,50,12.90
2016,10,13,14,51,12.90
2016,10,13,14,52,12.90
2016,10,13,14,53,11.30
2016,10,13,14,54,11.30
2016,10,13,14,55,8.10
2016,10,13,14,56,9.60
2016,10,13,14,57,6.40
2016,10,13,14,59,8.10
2016,10,13,15,00,9.60
2016,10,13,15,01,9.60
2016,10,13,15,02,8.10
2016,10,13,15,03,3.20
2016,10,13,15,04,9.60
2016,10,13,15,05,3.20
2016,10,13,15,09,6.40
2016,10,13,15,10,6.40
2016,10,13,15,11,8.10
2016,10,13,15,12,1.60
2016,10,13,15,13,1.60
2016,10,13,15,15,6.40
2016,10,13,15,16,6.40
2016,10,13,15,17,3.20
2016,10,13,15,23,1.60
2016,10,13,15,25,3.20
2016,10,13,15,26,3.20
2016,10,13,15,27,3.20
2016,10,13,15,28,3.20
2016,10,13,15,30,1.60
2016,10,13,15,36,4.80
2016,10,13,15,37,6.40
2016,10,13,15,38,4.80
2016,10,13,15,43,1.60
2016,10,13,15,44,3.20
2016,10,13,15,45,1.60
2016,10,13,15,53,1.60
2016,10,13,16,00,1.60
2016,10,13,16,01,6.40
2016,10,13,16,02,1.60
2016,10,13,16,13,6.40
2016,10,13,16,14,4.80
2016,10,13,16,17,1.60
2016,10,13,16,19,6.40
2016,10,13,16,20,3.20
2016,10,13,16,24,8.10
2016,10,13,16,25,6.40
2016,10,13,16,39,3.20
2016,10,13,16,40,1.60
2016,10,13,16,41,6.40
2016,10,13,16,42,3.20
2016,10,13,16,43,1.60
2016,10,13,16,58,1.60
2016,10,13,17,15,1.60
2016,10,13,17,16,4.80
2016,10,13,17,17,1.60
2016,10,13,17,25,1.60
2016,10,13,17,39,3.20
2016,10,13,17,40,3.20
2016,10,13,17,41,3.20
2016,10,13,17,42,3.20
2016,10,13,17,46,6.40
2016,10,13,17,47,3.20
2016,10,13,17,48,6.40
2016,10,13,17,49,3.20
2016,10,13,17,54,1.60
2016,10,13,17,55,1.60
2016,10,13,17,56,3.20
2016,10,13,17,58,1.60
2016,10,13,18,02,1.60
2016,10,13,18,03,8.10
2016,10,13,18,04,9.60
2016,10,13,18,05,4.80
2016,10,13,18,06,4.80
2016,10,13,18,07,8.10
2016,10,13,18,08,6.40
2016,10,13,18,09,8.10
2016,10,13,18,10,8.10
2016,10,13,18,11,6.40
2016,10,13,18,12,9.60
2016,10,13,18,13,9.60
2016,10,13,18,14,9.60
2016,10,13,18,15,9.60
2016,10,13,18,16,6.40
2016,10,13,18,17,9.60
2016,10,13,18,18,9.60
2016,10,13,18,19,6.40
2016,10,13,18,20,4.80
2016,10,13,18,21,1.60
2016,10,13,18,22,4.80
2016,10,13,18,23,4.80
2016,10,13,18,24,11.30
2016,10,13,18,25,9.60
2016,10,13,18,26,4.80
2016,10,13,18,27,6.40
2016,10,13,18,28,9.60
2016,10,13,18,29,11.30
2016,10,13,18,30,12.90
2016,10,13,18,31,16.10
2016,10,13,18,32,9.60
2016,10,13,18,33,8.10
2016,10,13,18,34,17.70
2016,10,13,18,35,27.40
2016,10,13,18,36,16.10
2016,10,13,18,37,11.30
2016,10,13,18,38,12.90
2016,10,13,18,39,9.60
2016,10,13,18,40,8.10
2016,10,13,18,41,11.30
2016,10,13,18,42,11.30
2016,10,13,18,43,4.80
2016,10,13,18,44,11.30
2016,10,13,18,45,16.10
2016,10,13,18,46,9.60
2016,10,13,18,47,11.30
2016,10,13,18,48,17.70
2016,10,13,18,49,9.60
2016,10,13,18,50,6.40
2016,10,13,18,51,6.40
2016,10,13,18,52,1.60
2016,10,13,18,54,8.10
2016,10,13,18,55,8.10
2016,10,13,18,56,12.90
2016,10,13,18,57,8.10
2016,10,13,18,58,11.30
2016,10,13,18,59,4.80
2016,10,13,19,01,12.90
2016,10,13,19,02,19.30
2016,10,13,19,03,11.30
2016,10,13,19,04,6.40
2016,10,13,19,05,8.10
2016,10,13,19,06,11.30
2016,10,13,19,07,9.60
2016,10,13,19,08,11.30
2016,10,13,19,09,19.30
2016,10,13,19,10,9.60
2016,10,13,19,11,17.70
2016,10,13,19,12,6.40
2016,10,13,19,13,9.60
2016,10,13,19,14,9.60
2016,10,13,19,15,6.40
2016,10,13,19,16,12.90
2016,10,13,19,17,9.60
2016,10,13,19,18,8.10
2016,10,13,19,19,9.60
2016,10,13,19,20,4.80
2016,10,13,19,21,1.60
2016,10,13,19,22,12.90
2016,10,13,19,23,9.60
2016,10,13,19,24,8.10
2016,10,13,19,25,9.60
2016,10,13,19,26,6.40
2016,10,13,19,27,6.40
2016,10,13,19,28,8.10
2016,10,13,19,29,4.80
2016,10,13,19,30,8.10
2016,10,13,19,31,11.30
2016,10,13,19,32,12.90
2016,10,13,19,33,8.10
2016,10,13,19,37,4.80
2016,10,13,19,41,1.60
2016,10,13,19,42,6.40
2016,10,13,19,43,9.60
2016,10,13,19,44,9.60
2016,10,13,19,45,3.20
2016,10,13,19,46,1.60
2016,10,13,19,50,1.60
2016,10,13,19,51,6.40
2016,10,13,19,52,6.40
2016,10,13,19,53,8.10
2016,10,13,19,54,6.40
2016,10,13,19,55,9.60
2016,10,13,19,56,8.10
2016,10,13,19,57,9.60
2016,10,13,19,58,4.80
2016,10,13,19,59,9.60
2016,10,13,20,00,8.10
2016,10,13,20,01,9.60
2016,10,13,20,02,8.10
2016,10,13,20,03,9.60
2016,10,13,20,04,4.80
2016,10,13,20,05,6.40
2016,10,13,20,06,8.10
2016,10,13,20,07,9.60
2016,10,13,20,08,3.20
2016,10,13,20,10,1.60
2016,10,13,20,11,9.60
2016,10,13,20,12,12.90
2016,10,13,20,13,8.10
2016,10,13,20,14,8.10
2016,10,13,20,15,3.20
2016,10,13,20,16,17.70
2016,10,13,20,17,17.70
2016,10,13,20,18,6.40
2016,10,13,20,19,6.40
2016,10,13,20,21,9.60
2016,10,13,20,22,4.80
2016,10,13,20,23,8.10
2016,10,13,20,24,12.90
2016,10,13,20,25,12.90
2016,10,13,20,26,11.30
2016,10,13,20,27,11.30
2016,10,13,20,28,8.10
2016,10,13,20,29,19.30
2016,10,13,20,30,22.50
2016,10,13,20,31,19.30
2016,10,13,20,32,8.10
2016,10,13,20,33,4.80
2016,10,13,20,34,20.90
2016,10,13,20,35,16.10
2016,10,13,20,36,11.30
2016,10,13,20,37,16.10
2016,10,13,20,38,20.90
2016,10,13,20,39,17.70
2016,10,13,20,40,16.10
2016,10,13,20,41,8.10
2016,10,13,20,42,19.30
2016,10,13,20,43,16.10
2016,10,13,20,44,9.60
2016,10,13,20,45,11.30
2016,10,13,20,46,11.30
2016,10,13,20,47,12.90
2016,10,13,20,48,11.30
2016,10,13,20,49,8.10
2016,10,13,20,50,11.30
2016,10,13,20,51,16.10
2016,10,13,20,52,16.10
2016,10,13,20,53,11.30
2016,10,13,20,54,14.50
2016,10,13,20,55,12.90
2016,10,13,20,56,20.90
2016,10,13,20,57,16.10
2016,10,13,20,58,8.10
2016,10,13,20,59,20.90
2016,10,13,21,00,11.30
2016,10,13,21,01,11.30
2016,10,13,21,02,8.10
2016,10,13,21,03,16.10
2016,10,13,21,04,11.30
2016,10,13,21,05,17.70
2016,10,13,21,06,6.40
2016,10,13,21,07,9.60
2016,10,13,21,08,11.30
2016,10,13,21,09,9.60
2016,10,13,21,10,11.30
2016,10,13,21,11,16.10
2016,10,13,21,12,16.10
2016,10,13,21,13,16.10
2016,10,13,21,14,12.90
2016,10,13,21,15,8.10
2016,10,13,21,16,4.80
2016,10,13,21,17,4.80
2016,10,13,21,18,8.10
2016,10,13,21,19,9.60
2016,10,13,21,20,6.40
2016,10,13,21,22,4.80
2016,10,13,21,23,3.20
2016,10,13,21,24,4.80
2016,10,13,21,25,6.40
2016,10,13,21,26,12.90
2016,10,13,21,27,11.30
2016,10,13,21,28,9.60
2016,10,13,21,30,6.40
2016,10,13,21,31,6.40
2016,10,13,21,32,8.10
2016,10,13,21,33,11.30
2016,10,13,21,34,8.10
2016,10,13,21,35,1.60
2016,10,13,21,36,6.40
2016,10,13,21,37,8.10
2016,10,13,21,38,8.10
2016,10,13,21,39,8.10
2016,10,13,21,40,8.10
2016,10,13,21,41,8.10
2016,10,13,21,42,6.40
2016,10,13,21,43,8.10
2016,10,13,21,44,12.90
2016,10,13,21,45,8.10
2016,10,13,21,46,8.10
2016,10,13,21,47,9.60
2016,10,13,21,48,11.30
2016,10,13,21,49,12.90
2016,10,13,21,50,8.10
2016,10,13,21,51,9.60
2016,10,13,21,52,4.80
2016,10,13,21,53,6.40
2016,10,13,21,54,17.70
2016,10,13,21,55,11.30
2016,10,13,21,56,11.30
2016,10,13,21,57,17.70
2016,10,13,21,58,16.10
2016,10,13,21,59,11.30
2016,10,13,22,00,19.30
2016,10,13,22,01,14.50
2016,10,13,22,02,12.90
2016,10,13,22,03,24.20
2016,10,13,22,04,11.30
2016,10,13,22,05,20.90
2016,10,13,22,06,22.50
2016,10,13,22,07,19.30
2016,10,13,22,08,20.90
2016,10,13,22,09,27.40
2016,10,13,22,10,20.90
2016,10,13,22,11,20.90
2016,10,13,22,12,19.30
2016,10,13,22,13,33.80
2016,10,13,22,14,17.70
2016,10,13,22,15,27.40
2016,10,13,22,16,24.20
2016,10,13,22,17,9.60
2016,10,13,22,18,20.90
2016,10,13,22,19,12.90
2016,10,13,22,20,14.50
2016,10,13,22,21,8.10
2016,10,13,22,22,14.50
2016,10,13,22,23,6.40
2016,10,13,22,24,14.50
2016,10,13,22,25,12.90
2016,10,13,22,26,12.90
2016,10,13,22,27,12.90
2016,10,13,22,28,8.10
2016,10,13,22,31,11.30
2016,10,13,22,34,1.60
2016,10,13,22,36,6.40
2016,10,13,22,37,12.90
2016,10,13,22,38,19.30
2016,10,13,22,39,14.50
2016,10,13,22,40,9.60
2016,10,13,22,41,9.60
2016,10,13,22,42,3.20
2016,10,13,22,43,16.10
2016,10,13,22,44,12.90
2016,10,13,22,45,8.10
2016,10,13,22,46,9.60
2016,10,13,22,47,12.90
2016,10,13,22,48,16.10
2016,10,13,22,49,12.90
2016,10,13,22,50,12.90
2016,10,13,22,51,9.60
2016,10,13,22,53,12.90
2016,10,13,22,54,12.90
2016,10,13,22,55,4.80
2016,10,13,22,58,6.40
2016,10,13,22,59,3.20
2016,10,13,23,00,8.10
2016,10,13,23,01,6.40
2016,10,13,23,02,6.40
2016,10,13,23,03,11.30
2016,10,13,23,04,8.10
2016,10,13,23,05,9.60
2016,10,13,23,06,6.40
2016,10,13,23,08,9.60
2016,10,13,23,09,6.40
2016,10,13,23,10,3.20
2016,10,13,23,35,3.20
2016,10,13,23,36,3.20
2016,10,13,23,37,3.20
2016,10,13,23,38,1.60
2016,10,13,23,39,8.10
2016,10,13,23,40,8.10
2016,10,13,23,41,11.30
2016,10,13,23,42,16.10
2016,10,13,23,43,11.30
2016,10,13,23,44,14.50
2016,10,13,23,45,22.50
2016,10,13,23,46,19.30
2016,10,13,23,47,16.10
2016,10,13,23,48,17.70
2016,10,13,23,49,14.50
2016,10,13,23,50,20.90
2016,10,13,23,51,20.90
2016,10,13,23,52,19.30
2016,10,13,23,53,16.10
2016,10,13,23,54,17.70
2016,10,13,23,55,16.10
2016,10,13,23,56,9.60
2016,10,13,23,57,9.60
2016,10,13,23,58,8.10
2016,10,13,23,59,12.90
